EDT,Max TemperatureF,Mean TemperatureF,Min TemperatureF,Max Dew PointF,MeanDew PointF,Min DewpointF,Max Humidity, Mean Humidity, Min Humidity, Max Sea Level PressureIn, Mean Sea Level PressureIn, Min Sea Level PressureIn, Max VisibilityMiles, Mean VisibilityMiles, Min VisibilityMiles, Max Wind SpeedMPH, Mean Wind SpeedMPH, Max Gust SpeedMPH,PrecipitationIn, CloudCover, Events, WindDirDegrees
2012-10-1,68,59,50,52,48,44,96,73,49,29.95,29.84,29.77,10,10,10,16,6,24,0.00,3,,233
2012-10-2,64,58,52,58,56,49,93,86,78,30.03,30.00,29.96,10,5,1,7,1,7,0.78,8,Rain,360
2012-10-3,69,65,60,66,62,57,97,91,84,30.10,30.04,29.99,9,4,1,5,0,85,0.02,8,Rain,255
2012-10-4,73,68,63,68,66,63,100,92,84,30.13,30.07,30.02,10,4,0,10,1,14,0.81,8,Fog-Rain,299
2012-10-5,78,68,58,63,60,57,100,75,50,30.06,30.01,29.90,10,5,0,9,1,,0.00,5,Fog,206
2012-10-6,75,60,44,59,53,42,100,79,57,29.98,29.84,29.73,10,6,1,17,5,24,0.00,2,,252
2012-10-7,55,48,41,46,41,38,93,74,54,30.10,30.05,29.99,10,10,5,13,1,17,0.09,4,Rain,257
2012-10-8,56,46,36,45,39,35,96,76,55,30.27,30.18,30.09,10,5,0,6,1,8,0.00,2,Fog,305
2012-10-9,60,53,46,49,46,42,93,77,60,30.24,30.17,30.09,10,10,10,9,3,16,T,8,Rain,29
2012-10-10,65,57,48,55,49,37,93,76,59,30.08,29.91,29.76,10,8,2,22,5,29,0.06,7,Rain,260
2012-10-11,59,49,39,38,34,30,85,59,33,30.17,30.09,29.94,10,10,10,15,6,21,0.00,0,,255
2012-10-12,55,43,30,41,33,22,92,64,35,30.42,30.18,30.03,10,10,10,24,6,36,0.03,3,Rain,312
2012-10-13,54,41,27,34,26,20,92,60,28,30.50,30.42,30.29,10,10,10,12,3,17,0.00,1,,196
2012-10-14,69,58,47,52,47,38,77,63,49,30.22,30.06,29.91,10,10,10,13,5,18,0.01,3,Rain,166
2012-10-15,69,62,54,63,56,52,100,84,68,29.88,29.69,29.62,10,6,0,12,4,17,0.37,6,Fog-Rain,174
2012-10-16,59,48,36,54,43,34,93,67,40,29.93,29.75,29.65,10,9,2,18,5,26,0.00,3,,317
2012-10-17,62,47,32,42,36,30,100,70,39,30.02,29.97,29.91,10,7,0,7,0,,0.00,3,Fog,195
2012-10-18,68,52,35,52,44,33,92,69,45,30.04,30.00,29.95,10,10,8,16,3,22,T,2,,148
2012-10-19,67,63,58,63,61,52,93,83,72,29.94,29.77,29.65,10,6,2,13,4,18,0.91,8,Rain,136
2012-10-20,71,57,43,63,51,39,100,69,37,29.80,29.68,29.62,10,6,0,17,4,23,0.00,1,Fog,215
2012-10-21,66,53,39,42,38,36,92,63,34,29.98,29.91,29.81,10,10,10,21,7,25,0.00,2,,266
2012-10-22,68,56,43,43,41,38,83,59,35,30.06,30.01,29.97,10,10,7,15,5,21,0.00,0,,261
2012-10-23,54,47,40,52,47,38,93,85,77,30.12,30.09,30.05,10,6,2,6,0,7,0.25,6,Rain,-1
2012-10-24,57,55,52,52,50,48,96,87,77,30.20,30.14,30.11,10,6,1,7,1,9,0.07,8,Rain,40
2012-10-25,60,56,52,53,51,49,96,84,72,30.28,30.23,30.20,10,8,2,7,1,12,0.10,8,Rain,130
2012-10-26,63,60,56,55,54,52,93,83,72,30.23,30.17,30.11,10,10,9,7,1,10,0.00,8,,152
2012-10-27,65,59,53,55,54,51,93,78,63,30.10,30.00,29.94,10,8,4,8,1,9,0.00,6,,79
2012-10-28,59,56,52,51,46,40,93,74,55,29.93,29.84,29.71,10,10,8,20,8,26,0.00,6,,32
2012-10-29,67,61,54,58,50,43,86,75,63,29.72,29.21,28.81,10,7,2,23,16,48,0.19,8,Rain,25
2012-10-30,67,59,51,48,46,45,77,70,62,29.54,29.44,29.40,10,10,7,21,12,29,0.08,8,Rain,139
2012-10-31,51,48,45,37,37,36,71,66,61,29.56,29.52,29.49,10,10,10,12,4,16,0.02,7,,209